Flag for Germany Weather past 2 weeks in Westerstede, Lower Saxony, Germany

43 °F

Rain. Partly cloudy.

Feels Like: 35 °F
Forecast: 44 / 50 °F
Wind: 17 mph from Northwest

Location: Wittmundhaven

Current Time: Nov 28, 2015 at 7:11:58 AM

Latest Report: Nov 28, 2015 at 6:20 AM

Visibility: 4 mi

Pressure: 29.56 "Hg

Humidity: 93%

Dew point: 41 °F

Location of WesterstedeLocation

Historic Weather in Westerstede — Graph


Westerstede temperature yesterday

Maximum temperature yesterday: 43 °F (at 2:20 PM)
Minimum temperature yesterday: 37 °F (at 12:20 AM)
Average temperature yesterday: 41 °F

Past Weeks' High & Low Weather Summary

High57 °F (Nov 17, 11:20 PM)100% (Nov 15, 3:20 AM)30.18 "Hg (Nov 15, 3:20 AM)
Low28 °F (Nov 23, 8:20 AM)54% (Nov 13, 2:20 PM)29.27 "Hg (Nov 21, 5:20 AM)
Average45 °F86%29.74 "Hg
* Reported Nov 13 5:20 AM — Nov 28 5:20 AM, Westerstede, Weather by CustomWeather, © 2015

Note: Actual official high and low records may vary slightly from our data, if they occured in-between our weather recording intervals... More about our weather records


Westerstede weather history for previous 24 hours

Time TempWeatherWind HumidityBarometerVisibility
5:20 AM
Sat, Nov 28
39 °FRain. Fog.15 mph100%29.53 "Hg2 mi
4:20 AM39 °FRain. Fog.16 mph93%29.53 "Hg2 mi
3:20 AM41 °FLight rain. Passing clouds.21 mph87%29.53 "Hg5 mi
2:20 AM41 °FPassing clouds.17 mph87%29.56 "HgN/A
1:50 AM41 °FLight rain. Passing clouds.16 mph87%29.59 "HgN/A
1:20 AM43 °FLight rain. Passing clouds.15 mph81%29.59 "Hg5 mi
12:20 AM43 °FPassing clouds.16 mph81%29.62 "HgN/A
11:20 PM
Fri, Nov 27
43 °FLight rain. Partly cloudy.18 mph87%29.65 "HgN/A
10:45 PM43 °FPartly cloudy.18 mph87%29.65 "Hg4 mi
10:20 PM43 °FPartly cloudy.17 mph93%29.68 "Hg2 mi
9:20 PM41 °FPartly cloudy.15 mph100%29.71 "Hg1 mi
8:20 PM41 °FPassing clouds.15 mph93%29.71 "Hg1 mi
7:20 PM43 °FPassing clouds.15 mph87%29.74 "Hg6 mi
6:50 PM43 °FPassing clouds.15 mph87%29.77 "HgN/A
6:20 PM43 °FPassing clouds.15 mph87%29.77 "Hg4 mi
5:20 PM43 °FPassing clouds.13 mph87%29.80 "Hg4 mi
4:20 PM43 °FPassing clouds.13 mph87%29.80 "Hg4 mi
3:20 PM43 °FPartly sunny.12 mph87%29.83 "Hg5 mi
2:20 PM43 °FPartly sunny.13 mph81%29.86 "Hg4 mi
1:20 PM41 °FBroken clouds.15 mph87%29.89 "Hg4 mi
12:20 PM41 °FBroken clouds.15 mph87%29.92 "Hg4 mi
11:20 AM41 °FFog.16 mph87%29.95 "Hg3 mi
10:20 AM39 °FScattered clouds.13 mph93%29.95 "HgN/A
9:20 AM39 °FPartly sunny.10 mph87%29.98 "HgN/A
8:20 AM39 °FPartly sunny.12 mph87%29.98 "HgN/A
7:20 AM39 °FPassing clouds.12 mph87%29.98 "HgN/A
Weather by CustomWeather, © 2015

See weather overviewHow to use our weather pages